TimeMDT,TemperatureF,Dew PointF,Humidity,Sea Level PressureIn,VisibilityMPH,Wind Direction,Wind SpeedMPH,Gust SpeedMPH,PrecipitationIn,Events,Conditions,WindDirDegrees,DateUTC
12:53 AM,78.1,48.0,35,29.71,10.0,SW,13.8,-,N/A,,Clear,220,2013-07-22 06:53:00
1:53 AM,79.0,50.0,36,29.70,10.0,SW,13.8,-,N/A,,Clear,220,2013-07-22 07:53:00
2:53 AM,77.0,51.1,40,29.68,10.0,WSW,16.1,-,N/A,,Clear,240,2013-07-22 08:53:00
3:53 AM,75.0,52.0,44,29.68,10.0,WSW,17.3,-,N/A,,Clear,240,2013-07-22 09:53:00
4:53 AM,72.0,48.9,44,29.68,10.0,WSW,10.4,-,N/A,,Clear,240,2013-07-22 10:53:00
5:53 AM,69.1,50.0,51,29.70,10.0,West,12.7,-,N/A,,Clear,260,2013-07-22 11:53:00
6:53 AM,72.0,50.0,46,29.70,10.0,WSW,12.7,-,N/A,,Clear,250,2013-07-22 12:53:00
7:53 AM,75.9,48.9,38,29.72,10.0,West,13.8,-,N/A,,Clear,280,2013-07-22 13:53:00
8:53 AM,81.0,50.0,34,29.73,10.0,West,6.9,-,N/A,,Clear,280,2013-07-22 14:53:00
9:53 AM,89.1,46.9,23,29.72,10.0,West,9.2,-,N/A,,Clear,260,2013-07-22 15:53:00
10:53 AM,91.9,48.0,22,29.72,10.0,Calm,Calm,-,N/A,,Clear,0,2013-07-22 16:53:00
11:53 AM,97.0,43.0,16,29.72,10.0,NE,11.5,-,N/A,,Clear,40,2013-07-22 17:53:00
12:53 PM,99.0,39.0,13,29.72,10.0,East,11.5,20.7,N/A,,Clear,80,2013-07-22 18:53:00
1:53 PM,100.0,32.0,9,29.69,10.0,NE,11.5,18.4,N/A,,Clear,50,2013-07-22 19:53:00
2:53 PM,102.0,32.0,9,29.69,10.0,East,16.1,19.6,N/A,,Clear,90,2013-07-22 20:53:00
3:53 PM,100.0,30.9,9,29.69,10.0,ENE,13.8,19.6,N/A,,Clear,60,2013-07-22 21:53:00
4:53 PM,100.9,35.1,10,29.68,10.0,ENE,15.0,-,N/A,,Clear,70,2013-07-22 22:53:00
5:53 PM,98.1,37.0,12,29.68,10.0,NE,15.0,18.4,N/A,,Clear,50,2013-07-22 23:53:00
6:53 PM,95.0,41.0,15,29.70,10.0,NE,12.7,-,N/A,,Clear,40,2013-07-23 00:53:00
7:53 PM,91.9,45.0,20,29.69,10.0,NE,10.4,-,N/A,,Clear,40,2013-07-23 01:53:00
8:53 PM,89.1,46.9,23,29.70,10.0,SSE,5.8,-,N/A,,Clear,150,2013-07-23 02:53:00
9:53 PM,88.0,46.0,23,29.70,10.0,SSE,3.5,-,N/A,,Clear,150,2013-07-23 03:53:00
10:53 PM,82.9,44.1,25,29.72,10.0,Calm,Calm,-,N/A,,Clear,0,2013-07-23 04:53:00
11:53 PM,80.1,43.0,27,29.73,10.0,WNW,3.5,-,N/A,,Clear,290,2013-07-23 05:53:00